| time (UTC) | temp C | wind direction | speed KPH | gust KPH | rain 1hr cm | rain 24hr cm | rain mn cm | humidity % | barometer mb |
| 20260508170031 | 10 | 92 | 9.7 | 0.0 | 0.00 | 0.00 | 0.05 | 41 | 1019.8 |
| 20260508164525 | 10 | 134 | 9.7 | 0.0 | 0.00 | 0.00 | 0.05 | 40 | 1019.9 |
| 20260508163039 | 10 | 74 | 9.7 | 0.0 | 0.00 | 0.00 | 0.05 | 41 | 1019.9 |
| 20260508161524 | 11 | 82 | 6.4 | 0.0 | 0.00 | 0.00 | 0.05 | 39 | 1020.1 |
| 20260508160026 | 10 | 109 | 9.7 | 0.0 | 0.00 | 0.00 | 0.05 | 40 | 1019.9 |
| 20260508154523 | 10 | 145 | 8.0 | 0.0 | 0.00 | 0.00 | 0.05 | 41 | 1020.0 |
| 20260508153028 | 11 | 135 | 6.4 | 0.0 | 0.00 | 0.00 | 0.05 | 39 | 1020.1 |
| 20260508151528 | 11 | 145 | 6.4 | 0.0 | 0.00 | 0.00 | 0.05 | 40 | 1020.1 |
| 20260508150027 | 10 | 81 | 8.0 | 0.0 | 0.00 | 0.00 | 0.05 | 41 | 1020.3 |
| 20260508144520 | 10 | 67 | 9.7 | 0.0 | 0.00 | 0.00 | 0.05 | 44 | 1020.4 |
| 20260508143019 | 10 | 87 | 9.7 | 0.0 | 0.00 | 0.00 | 0.05 | 45 | 1020.5 |
| 20260508141518 | 10 | 97 | 8.0 | 0.0 | 0.00 | 0.00 | 0.05 | 46 | 1020.6 |
| 20260508140020 | 10 | 102 | 8.0 | 0.0 | 0.00 | 0.00 | 0.05 | 45 | 1020.8 |
| 20260508134523 | 10 | 82 | 9.7 | 0.0 | 0.00 | 0.00 | 0.05 | 47 | 1021.0 |
| 20260508133018 | 10 | 103 | 8.0 | 0.0 | 0.00 | 0.00 | 0.05 | 46 | 1021.1 |
| 20260508131517 | 10 | 109 | 6.4 | 0.0 | 0.00 | 0.00 | 0.05 | 46 | 1021.2 |
| 20260508130016 | 10 | 75 | 9.7 | 0.0 | 0.00 | 0.00 | 0.05 | 46 | 1021.4 |
| 20260508124516 | 10 | 77 | 9.7 | 0.0 | 0.00 | 0.00 | 0.05 | 46 | 1021.4 |
| 20260508123014 | 10 | 92 | 4.8 | 0.0 | 0.00 | 0.00 | 0.05 | 45 | 1021.4 |
| 20260508121516 | 10 | 95 | 6.4 | 0.0 | 0.00 | 0.00 | 0.05 | 45 | 1021.3 |
| 20260508120011 | 10 | 103 | 6.4 | 0.0 | 0.00 | 0.00 | 0.05 | 49 | 1021.2 |
| 20260508114509 | 9 | 89 | 6.4 | 0.0 | 0.00 | 0.00 | 0.05 | 51 | 1021.4 |
| 20260508113007 | 9 | 94 | 6.4 | 0.0 | 0.00 | 0.00 | 0.05 | 49 | 1021.4 |
| 20260508111506 | 9 | 132 | 9.7 | 0.0 | 0.00 | 0.00 | 0.05 | 51 | 1021.4 |
| 20260508110003 | 11 | 80 | 3.2 | 0.0 | 0.00 | 0.00 | 0.05 | 48 | 1021.4 |
| 20260508104605 | 11 | 173 | 3.2 | 0.0 | 0.00 | 0.00 | 0.05 | 50 | 1021.5 |
| 20260508103058 | 10 | 93 | 3.2 | 0.0 | 0.00 | 0.00 | 0.05 | 51 | 1021.6 |
| 20260508101556 | 8 | 302 | 3.2 | 0.0 | 0.00 | 0.00 | 0.05 | 54 | 1021.6 |
| 20260508100049 | 7 | 206 | 1.6 | 0.0 | 0.00 | 0.00 | 0.05 | 58 | 1021.7 |
| 20260508094554 | 7 | 248 | 1.6 | 0.0 | 0.00 | 0.00 | 0.05 | 63 | 1021.9 |
| 20260508093055 | 7 | 254 | 1.6 | 0.0 | 0.00 | 0.00 | 0.05 | 62 | 1022.0 |
| 20260508091543 | 7 | 258 | 1.6 | 0.0 | 0.00 | 0.00 | 0.05 | 64 | 1021.8 |
| 20260508084538 | 7 | 318 | 3.2 | 0.0 | 0.00 | 0.00 | 0.05 | 63 | 1021.9 |
| 20260508083036 | 7 | 209 | 3.2 | 0.0 | 0.00 | 0.00 | 0.05 | 69 | 1021.7 |
| 20260508081531 | 7 | 310 | 0.0 | 0.0 | 0.00 | 0.00 | 0.05 | 72 | 1021.6 |
| 20260508080036 | 6 | 317 | 1.6 | 0.0 | 0.00 | 0.00 | 0.05 | 75 | 1021.6 |
| 20260508074535 | 6 | 327 | 0.0 | 0.0 | 0.00 | 0.00 | 0.05 | 75 | 1021.5 |
| 20260508073023 | 6 | 40 | 3.2 | 0.0 | 0.00 | 0.00 | 0.05 | 77 | 1021.4 |
| 20260508071525 | 6 | 44 | 3.2 | 0.0 | 0.00 | 0.00 | 0.05 | 80 | 1021.5 |
| 20260508070014 | 5 | 51 | 3.2 | 0.0 | 0.00 | 0.00 | 0.05 | 85 | 1021.3 |
| 20260508064513 | 4 | 46 | 4.8 | 0.0 | 0.00 | 0.00 | 0.05 | 88 | 1021.2 |
| 20260508063007 | 3 | 53 | 4.8 | 0.0 | 0.00 | 0.00 | 0.05 | 89 | 1021.2 |
| 20260508061507 | 3 | 42 | 3.2 | 0.0 | 0.00 | 0.00 | 0.05 | 90 | 1021.3 |
| 20260508060005 | 3 | 52 | 4.8 | 0.0 | 0.00 | 0.00 | 0.05 | 90 | 1021.2 |
| 20260508054504 | 3 | 47 | 6.4 | 0.0 | 0.00 | 0.00 | 0.05 | 91 | 1021.1 |
| 20260508053001 | 3 | 62 | 3.2 | 0.0 | 0.00 | 0.00 | 0.05 | 91 | 1020.9 |
| 20260508051600 | 3 | 45 | 3.2 | 0.0 | 0.00 | 0.00 | 0.05 | 92 | 1020.8 |
| 20260508050059 | 2 | 42 | 3.2 | 0.0 | 0.00 | 0.00 | 0.05 | 92 | 1020.8 |
| 20260508044602 | 2 | 40 | 1.6 | 0.0 | 0.00 | 0.00 | 0.05 | 92 | 1020.6 |
| 20260508043054 | 2 | 42 | 1.6 | 0.0 | 0.00 | 0.00 | 0.05 | 92 | 1020.4 |
| 20260508041558 | 2 | 42 | 1.6 | 0.0 | 0.00 | 0.00 | 0.05 | 92 | 1020.4 |
| 20260508040056 | 2 | 65 | 1.6 | 0.0 | 0.00 | 0.00 | 0.05 | 93 | 1020.3 |
| 20260508034600 | 2 | 72 | 1.6 | 0.0 | 0.00 | 0.00 | 0.05 | 92 | 1020.3 |
| 20260508033049 | 1 | 71 | 1.6 | 0.0 | 0.00 | 0.00 | 0.05 | 92 | 1020.2 |
| 20260508031558 | 1 | 83 | 1.6 | 0.0 | 0.00 | 0.00 | 0.05 | 92 | 1020.0 |
| 20260508030106 | 1 | 100 | 3.2 | 0.0 | 0.00 | 0.00 | 0.05 | 92 | 1020.0 |
| 20260508024547 | 1 | 240 | 0.0 | 0.0 | 0.00 | 0.00 | 0.00 | 92 | 1020.1 |
| 20260508023048 | 1 | 240 | 0.0 | 0.0 | 0.00 | 0.00 | 0.00 | 92 | 1019.7 |
| 20260508021546 | 1 | 240 | 0.0 | 0.0 | 0.00 | 0.00 | 0.00 | 91 | 1019.9 |
| 20260508020043 | 1 | 241 | 0.0 | 0.0 | 0.00 | 0.00 | 0.00 | 91 | 1019.9 |
| 20260508014542 | 1 | 242 | 0.0 | 0.0 | 0.00 | 0.00 | 0.00 | 91 | 1019.6 |
| 20260508013040 | 1 | 242 | 0.0 | 0.0 | 0.00 | 0.00 | 0.00 | 91 | 1019.4 |
| 20260508011540 | 1 | 244 | 0.0 | 0.0 | 0.00 | 0.00 | 0.00 | 91 | 1019.4 |
| 20260508010042 | 1 | 244 | 0.0 | 0.0 | 0.00 | 0.00 | 0.00 | 90 | 1019.4 |
| 20260508004534 | 1 | 244 | 0.0 | 0.0 | 0.00 | 0.00 | 0.00 | 90 | 1019.1 |
| 20260508003033 | 2 | 244 | 0.0 | 0.0 | 0.00 | 0.00 | 0.00 | 90 | 1019.2 |
| 20260508001535 | 2 | 244 | 0.0 | 0.0 | 0.00 | 0.00 | 0.00 | 90 | 1019.1 |
| 20260508000031 | 2 | 244 | 0.0 | 0.0 | 0.00 | 0.00 | 0.00 | 90 | 1018.8 |
| 20260507234535 | 2 | 246 | 0.0 | 0.0 | 0.00 | 0.00 | 0.00 | 90 | 1018.7 |
| 20260507233027 | 2 | 237 | 0.0 | 0.0 | 0.00 | 0.00 | 0.00 | 90 | 1018.7 |
| 20260507231525 | 2 | 252 | 3.2 | 0.0 | 0.00 | 0.00 | 0.00 | 91 | 1018.6 |
| 20260507230022 | 1 | 89 | 1.6 | 0.0 | 0.00 | 0.00 | 0.00 | 90 | 1018.3 |
| 20260507224526 | 2 | 72 | 0.0 | 0.0 | 0.00 | 0.00 | 0.00 | 89 | 1018.3 |
| 20260507223017 | 2 | 72 | 1.6 | 0.0 | 0.00 | 0.00 | 0.00 | 89 | 1018.1 |
| 20260507221518 | 2 | 84 | 3.2 | 0.0 | 0.00 | 0.00 | 0.00 | 90 | 1017.8 |
| 20260507220013 | 2 | 360 | 0.0 | 0.0 | 0.00 | 0.00 | 0.15 | 88 | 1017.6 |
| 20260507214510 | 2 | 360 | 0.0 | 0.0 | 0.00 | 0.00 | 0.15 | 88 | 1017.8 |
| 20260507213018 | 2 | 360 | 0.0 | 0.0 | 0.00 | 0.00 | 0.15 | 88 | 1017.7 |
| 20260507211508 | 2 | 360 | 0.0 | 0.0 | 0.00 | 0.00 | 0.15 | 88 | 1017.6 |
| 20260507210023 | 2 | 309 | 0.0 | 0.0 | 0.00 | 0.00 | 0.15 | 86 | 1017.5 |
| 20260507204507 | 2 | 309 | 0.0 | 0.0 | 0.00 | 0.00 | 0.15 | 86 | 1017.4 |
| 20260507203010 | 3 | 309 | 0.0 | 0.0 | 0.00 | 0.00 | 0.15 | 85 | 1017.2 |
| 20260507201513 | 3 | 308 | 0.0 | 0.0 | 0.00 | 0.00 | 0.15 | 84 | 1017.0 |
| 20260507200011 | 3 | 308 | 0.0 | 0.0 | 0.00 | 0.00 | 0.15 | 84 | 1016.9 |
| 20260507194502 | 3 | 309 | 0.0 | 0.0 | 0.00 | 0.00 | 0.15 | 84 | 1016.8 |
| 20260507193132 | 3 | 309 | 0.0 | 0.0 | 0.00 | 0.00 | 0.15 | 85 | 1016.6 |
| 20260507191603 | 3 | 311 | 3.2 | 0.0 | 0.00 | 0.00 | 0.15 | 84 | 1016.4 |
| 20260507190059 | 3 | 279 | 4.8 | 0.0 | 0.00 | 0.00 | 0.15 | 83 | 1016.5 |
| 20260507184559 | 4 | 262 | 0.0 | 0.0 | 0.00 | 0.00 | 0.15 | 81 | 1016.5 |
| 20260507183102 | 5 | 304 | 0.0 | 0.0 | 0.00 | 0.00 | 0.15 | 80 | 1016.1 |
| 20260507181555 | 5 | 293 | 1.6 | 0.0 | 0.00 | 0.00 | 0.15 | 80 | 1016.1 |
| 20260507180057 | 5 | 308 | 1.6 | 0.0 | 0.00 | 0.00 | 0.15 | 79 | 1015.7 |
| 20260507174600 | 5 | 289 | 1.6 | 0.0 | 0.00 | 0.00 | 0.15 | 77 | 1015.9 |
| 20260507173128 | 5 | 239 | 3.2 | 0.0 | 0.00 | 0.00 | 0.15 | 76 | 1015.6 |
| 20260507171551 | 6 | 227 | 3.2 | 0.0 | 0.00 | 0.00 | 0.15 | 74 | 1015.6 |